TimePST,TemperatureF,Dew PointF,Humidity,Sea Level PressureIn,VisibilityMPH,Wind Direction,Wind SpeedMPH,Gust SpeedMPH,PrecipitationIn,Events,Conditions,WindDirDegrees,DateUTC
12:56 AM,46.9,36.0,66,29.70,10.0,WSW,4.6,-,N/A,,Mostly Cloudy,250,2013-12-03 08:56:00
1:56 AM,46.9,36.0,66,29.68,10.0,SW,5.8,-,N/A,,Mostly Cloudy,230,2013-12-03 09:56:00
2:56 AM,46.9,36.0,66,29.66,10.0,SW,6.9,-,N/A,,Mostly Cloudy,230,2013-12-03 10:56:00
3:56 AM,46.0,36.0,68,29.64,10.0,WSW,6.9,-,N/A,,Mostly Cloudy,250,2013-12-03 11:56:00
4:56 AM,46.9,35.1,63,29.63,10.0,SW,3.5,-,N/A,,Scattered Clouds,220,2013-12-03 12:56:00
5:56 AM,46.0,35.1,66,29.64,10.0,SW,5.8,-,N/A,,Scattered Clouds,220,2013-12-03 13:56:00
6:56 AM,45.0,35.1,68,29.65,10.0,SW,5.8,-,N/A,,Mostly Cloudy,220,2013-12-03 14:56:00
7:56 AM,46.0,36.0,68,29.64,10.0,WSW,5.8,-,N/A,,Mostly Cloudy,240,2013-12-03 15:56:00
8:56 AM,50.0,36.0,59,29.63,10.0,WSW,3.5,-,N/A,,Mostly Cloudy,240,2013-12-03 16:56:00
9:56 AM,55.0,35.1,47,29.59,10.0,Calm,Calm,-,N/A,,Mostly Cloudy,0,2013-12-03 17:56:00
10:56 AM,57.9,37.0,46,29.52,10.0,SE,3.5,-,N/A,,Scattered Clouds,130,2013-12-03 18:56:00
11:27 AM,62.6,33.8,34,29.50,10.0,Variable,4.6,21.9,N/A,,Scattered Clouds,0,2013-12-03 19:27:00
11:33 AM,62.6,33.8,34,29.50,10.0,South,6.9,-,N/A,,Scattered Clouds,190,2013-12-03 19:33:00
11:56 AM,66.0,30.0,26,29.46,10.0,SSW,21.9,34.5,N/A,,Scattered Clouds,210,2013-12-03 19:56:00
12:56 PM,68.0,35.1,30,29.40,10.0,SW,25.3,35.7,N/A,,Scattered Clouds,220,2013-12-03 20:56:00
1:56 PM,69.1,37.0,31,29.39,10.0,SSW,20.7,33.4,N/A,,Mostly Cloudy,210,2013-12-03 21:56:00
2:56 PM,68.0,37.9,33,29.38,9.0,SSW,19.6,27.6,N/A,,Mostly Cloudy,210,2013-12-03 22:56:00
3:56 PM,66.9,37.0,33,29.37,10.0,SSW,17.3,25.3,N/A,,Mostly Cloudy,210,2013-12-03 23:56:00
4:56 PM,66.0,37.0,34,29.34,10.0,South,12.7,-,N/A,,Mostly Cloudy,190,2013-12-04 00:56:00
5:56 PM,66.0,35.1,32,29.35,10.0,SSW,23.0,33.4,N/A,,Mostly Cloudy,200,2013-12-04 01:56:00
6:56 PM,64.0,35.1,34,29.37,10.0,SSW,28.8,36.8,N/A,,Mostly Cloudy,210,2013-12-04 02:56:00
7:56 PM,63.0,35.1,35,29.40,10.0,SW,19.6,29.9,N/A,,Mostly Cloudy,220,2013-12-04 03:56:00
8:56 PM,60.1,37.9,44,29.46,10.0,SW,16.1,29.9,N/A,,Mostly Cloudy,230,2013-12-04 04:56:00
9:47 PM,51.8,30.2,44,29.53,10.0,NW,17.3,27.6,N/A,,Mostly Cloudy,320,2013-12-04 05:47:00
9:56 PM,51.1,30.9,46,29.52,10.0,NNW,20.7,27.6,N/A,,Mostly Cloudy,330,2013-12-04 05:56:00
10:56 PM,44.1,30.9,60,29.56,10.0,NW,28.8,41.4,N/A,,Overcast,320,2013-12-04 06:56:00
11:32 PM,42.8,33.8,70,29.63,8.0,ENE,15.0,21.9,0.02,Rain,Rain,60,2013-12-04 07:32:00
11:56 PM,41.0,33.1,73,29.63,10.0,NNE,8.1,-,0.03,Rain,Light Rain,20,2013-12-04 07:56:00